Vertical_Velocity
4 -3 -2 -2 -2 -2 -2 0 2 1 -1 1 -0 -3 -1 -1 -3 -4 -5 -1 1 1 -1 -5 -1 2 1 0 3 7 10 0 -3 0 -12 1 1 -1 2 -1 2 -2 -1 -5 2
-1 2 -4 3 -4 0 -2 -2 -0 10 -1 0 -0 -2 -1 1 0 -2 1 1 -2 4 -3 1 -3 5 6 -0 -3 4 4 -5 -2 -0 -1 -1 0 -0 -2 2 4 1 5 1 -5
2 -1 -2 -2 -0 0 -4 -1 -2 4 -0 -1 -1 -0 0 -0 1 -2 -3 1 1 -4 -2 -1 -0 2 7 4 -1 -2 -3 -6 -5 0 1 -0 1 2 -1 -0 -2 -12 -1 7 2
2 3 2 -5 0 -1 -1 0 -3 6 6 0 -0 -2 -3 -1 -3 -2 -2 -0 6 -3 -5 -4 2 -1 2 1 -4 5 -1 -1 5 -0 -0 0 1 0 0 -2 5 2 2 -3 -5
3 -0 -1 -1 -1 -1 -4 3 -3 -0 4 -1 0 -2 1 1 -8 -0 -0 -0 -0 1 1 2 1 -2 1 -0 3 6 -3 1 -5 -0 1 -0 1 -1 -1 4 2 3 8 2 3
-5 2 -0 1 -2 -0 -1 3 -3 -3 3 -1 1 -2 1 -2 -2 -2 2 1 1 5 -2 1 -5 -7 2 -1 -0 -3 -2 -3 -1 -8 2 2 -1 -1 -2 6 1 6 3 6 5
-3 -2 3 4 -3 -0 -3 3 -2 -3 0 3 -0 -2 1 -16 -0 3 1 -0 -1 2 3 -1 1 9 -1 -0 -6 -6 3 3 4 -7 1 2 -2 0 2 0 3 1 6 5 3
2 0 4 0 3 -3 -2 -1 -1 -2 -3 2 -0 -0 -9 -0 -2 2 0 -1 -2 -5 -2 2 -6 4 2 -0 6 2 5 6 -1 2 -12 3 2 2 -1 0 2 3 2 4 3
0 -2 3 3 2 -4 -2 2 -3 -2 -1 3 -2 1 -9 -1 -2 7 0 3 0 -2 0 5 0 -0 7 4 6 4 -1 2 6 -2 -1 2 0 1 0 0 -0 1 -0 4 6
5 2 -0 4 4 -6 -1 3 -4 -1 3 1 -1 5 -1 -4 -2 -1 5 -2 -0 3 -0 6 8 -0 0 6 -4 -2 1 2 -2 4 7 2 -2 -1 -0 -0 -0 -1 -1 2 2
3 -3 2 3 5 -7 1 -3 -3 1 1 -2 -1 -1 -0 -1 3 3 -3 -3 7 1 1 -0 5 -1 -3 -1 0 -3 -0 -2 2 5 -2 -2 -1 -1 -1 -2 -1 -2 -1 -3 1
6 2 -6 2 5 -5 2 -3 -2 2 -2 -5 3 0 2 1 -1 3 4 -1 3 -0 0 4 -0 -4 -1 0 1 1 -1 3 6 3 -5 1 -4 -0 -0 -0 -1 -1 -1 -4 0
4 -4 -4 -0 5 -3 0 -6 2 0 -2 -2 -1 0 1 2 -2 -3 -5 1 1 1 -0 -1 -1 -0 -2 -0 3 1 -5 1 -10 2 1 -1 -2 -3 -4 -1 -1 3 -3 0 -0
1 -4 -1 1 3 -1 -3 -1 1 -1 -8 -9 -2 1 -2 -1 -3 4 1 -4 1 1 0 -0 4 -3 0 0 -3 -1 -1 -4 -1 -2 2 1 1 -1 -1 -2 1 -5 2 -7 -2
-2 -4 0 8 -1 -2 -3 0 0 -2 -11 -11 -1 -1 -2 3 -1 2 -4 5 1 2 5 2 1 0 1 2 -1 0 -5 -4 -2 -1 -1 -2 -1 -7 0 -0 -3 -3 -7 -4 -3
-7 7 -4 4 2 -0 -4 0 -1 -24 -15 -6 -1 -0 -1 -1 -0 -2 1 0 4 -1 -1 3 -1 0 4 -0 -2 1 -8 -4 -2 -1 -0 -1 -1 -4 -2 -6 -2 -2 -1 -5 -2
-2 4 -3 3 -2 -3 -2 -0 -14 -10 -12 -4 -1 -1 0 -1 -3 0 -0 -0 -1 -4 -3 -2 -2 -2 -1 -5 -4 -6 -3 -0 -2 -2 -3 -0 1 -10 -3 -2 -2 -2 -3 -4 1
-9 7 -1 3 1 -3 0 -11 -7 -3 -2 -0 -1 -1 0 -0 -2 -1 -0 -2 -2 -3 -2 -1 -11 -1 -3 -1 -3 1 -1 -4 -2 -2 -1 -0 -3 -15 0 -0 -0 3 1 -1 2
1 1 5 3 2 -1 0 -4 -12 -3 -6 -2 -2 -1 -2 -1 3 -2 -0 0 2 -0 -5 -2 0 -4 -1 0 -1 -2 -5 1 -3 -0 -5 -3 -8 -7 -1 -1 -0 0 1 1 -2
-9 -2 5 4 4 -1 -7 -3 -2 -1 -1 -2 -3 0 0 -0 -1 -2 -2 1 -0 0 -1 1 -6 0 -1 -3 -5 -2 -2 -4 -2 -2 0 -3 -1 -6 -2 -0 0 -0 0 -1 1
1 -5 4 4 4 -0 -3 -4 -0 -1 -2 -5 -1 -0 -2 -1 -0 1 1 -3 -1 -2 -1 -1 -8 -6 -4 -3 -1 -5 -2 -3 -5 -2 -3 -1 -7 -2 -1 -0 -0 -0 0 -0 -1
-0 -4 3 5 -5 -0 -0 -3 -0 1 1 0 -3 -1 -2 -0 -0 -1 -1 1 0 1 -1 0 -3 -1 -0 -2 0 -0 -0 -2 -6 -2 -1 -3 -9 0 1 0 0 1 1 -1 -0
-6 2 7 3 -3 -0 -1 -0 -0 0 -0 0 -0 -1 -0 -1 -4 -1 0 -2 1 -1 0 0 -2 -3 -11 -12 -6 -1 0 -0 -1 -3 -1 -5 -9 -1 -0 -1 -0 -1 1 0 -2
-6 -1 3 4 -0 -2 -1 0 1 1 -0 0 -1 -1 -1 -1 -0 -0 0 -1 0 -0 1 -3 -0 -5 -8 -7 -4 -0 -0 0 -3 -3 -2 -4 -3 -2 -0 -0 -1 -1 -1 -1 -1
1 0 -5 -0 4 0 -0 -2 0 0 0 2 0 -1 -2 -1 -0 -0 0 -1 -2 0 -0 -4 -2 -1 0 0 -0 -0 -0 0 -1 -2 -5 -3 -1 -2 -1 -1 -3 -1 -1 -2 -3
-6 -7 3 2 1 -1 -0 -2 -2 2 -4 1 -3 0 -1 -3 -5 -2 -3 -1 -1 -2 -1 -1 -2 -1 -1 -1 0 0 -0 0 -0 0 1 1 -5 -2 -3 2 -2 -3 -2 -3 -3
0 0 -5 3 1 -2 -3 -1 -1 -2 0 -1 -4 -3 -1 -1 -0 1 0 -1 -1 -3 -0 -2 -1 -2 -1 0 -1 -5 -1 -1 -1 -0 -2 -1 -10 0 -2 -1 -2 -2 -0 -1 -3
Height
1515 1512 1508 1506 1506 1505 1502 1499 1496 1494 1493 1491 1489 1489 1489 1488 1487 1486 1485 1486 1485 1486 1487 1487 1488 1489 1490 1491 1492 1490 1489 1482 1482 1482 1478 1473 1474 1473 1472 1475 1480 1482 1483 1486 1495
1511 1508 1505 1502 1503 1502 1499 1498 1494 1492 1491 1490 1488 1488 1488 1487 1485 1484 1484 1483 1485 1485 1485 1485 1486 1487 1487 1486 1489 1487 1482 1482 1478 1476 1477 1473 1471 1471 1474 1474 1476 1480 1482 1482 1490
1507 1504 1500 1501 1499 1499 1497 1494 1492 1490 1489 1489 1487 1487 1486 1485 1485 1483 1483 1483 1484 1483 1484 1483 1484 1485 1484 1484 1483 1481 1478 1479 1477 1477 1477 1475 1471 1470 1471 1473 1469 1474 1479 1480 1486
1503 1501 1497 1496 1496 1495 1493 1491 1489 1488 1488 1487 1486 1485 1485 1485 1486 1481 1481 1482 1483 1481 1481 1480 1480 1483 1481 1479 1480 1480 1475 1479 1478 1478 1479 1476 1470 1469 1470 1469 1468 1471 1474 1480 1491
1499 1498 1495 1492 1492 1491 1491 1489 1486 1486 1486 1486 1485 1485 1485 1484 1481 1481 1481 1480 1480 1479 1479 1478 1478 1479 1478 1476 1479 1477 1475 1474 1475 1477 1480 1478 1471 1469 1470 1469 1470 1473 1480 1483 1488
1494 1494 1491 1490 1488 1488 1488 1486 1484 1483 1483 1484 1483 1484 1483 1483 1478 1479 1479 1478 1477 1476 1475 1475 1473 1474 1475 1474 1475 1471 1474 1477 1477 1480 1477 1478 1471 1467 1472 1471 1470 1477 1478 1481 1484
1489 1489 1487 1486 1485 1484 1484 1483 1480 1480 1481 1482 1482 1482 1481 1479 1477 1477 1477 1476 1475 1473 1472 1470 1470 1472 1471 1472 1472 1472 1474 1475 1474 1477 1473 1477 1473 1474 1474 1472 1474 1476 1481 1484 1488
1485 1485 1484 1483 1482 1481 1481 1479 1478 1478 1480 1481 1480 1481 1478 1476 1476 1475 1475 1474 1473 1472 1470 1468 1469 1470 1470 1470 1468 1473 1475 1473 1470 1478 1481 1474 1476 1475 1476 1475 1476 1477 1479 1483 1489
1480 1480 1481 1480 1479 1477 1478 1478 1477 1477 1479 1479 1481 1481 1477 1475 1474 1473 1473 1472 1471 1470 1468 1467 1468 1469 1470 1471 1465 1468 1470 1466 1467 1474 1479 1477 1475 1477 1477 1476 1476 1477 1480 1481 1486
1475 1475 1477 1476 1475 1475 1476 1477 1477 1478 1479 1479 1480 1483 1476 1474 1473 1471 1471 1471 1469 1468 1467 1465 1463 1466 1469 1465 1456 1458 1466 1467 1464 1470 1478 1483 1479 1476 1477 1475 1476 1478 1480 1483 1484
1469 1471 1473 1473 1472 1472 1476 1477 1481 1481 1478 1478 1477 1475 1472 1472 1469 1467 1468 1468 1466 1467 1464 1464 1460 1458 1459 1459 1458 1454 1460 1470 1474 1471 1481 1479 1486 1479 1477 1477 1477 1480 1482 1483 1484
1465 1466 1469 1470 1470 1471 1474 1474 1475 1476 1476 1475 1474 1473 1471 1470 1467 1466 1466 1468 1465 1465 1464 1463 1457 1456 1457 1458 1457 1456 1459 1468 1474 1476 1477 1481 1487 1474 1474 1475 1478 1481 1483 1485 1486
1460 1461 1465 1467 1467 1469 1471 1473 1474 1474 1475 1474 1472 1471 1471 1469 1467 1464 1464 1464 1464 1463 1461 1457 1454 1455 1457 1459 1457 1453 1455 1458 1468 1476 1482 1485 1486 1479 1476 1473 1475 1479 1481 1484 1488
1454 1456 1462 1465 1469 1467 1470 1471 1473 1474 1487 1475 1472 1472 1470 1467 1466 1464 1464 1465 1463 1460 1455 1453 1454 1454 1460 1455 1450 1453 1451 1456 1466 1478 1479 1481 1489 1483 1475 1473 1474 1473 1477 1480 1484
1449 1453 1458 1462 1463 1465 1469 1470 1473 1475 1511 1470 1471 1470 1467 1468 1468 1465 1462 1460 1457 1455 1457 1455 1453 1456 1457 1452 1449 1453 1451 1456 1463 1480 1490 1489 1487 1476 1473 1474 1474 1472 1473 1475 1479
1442 1448 1455 1459 1461 1464 1467 1470 1475 1493 1501 1477 1470 1469 1469 1467 1466 1464 1462 1460 1458 1454 1454 1457 1455 1453 1455 1452 1449 1453 1462 1473 1482 1484 1495 1487 1491 1476 1480 1473 1466 1466 1467 1469 1473
1437 1446 1451 1456 1459 1462 1467 1471 1486 1498 1473 1473 1471 1469 1469 1467 1464 1463 1462 1460 1460 1458 1462 1462 1464 1460 1459 1457 1458 1462 1467 1483 1491 1494 1488 1481 1491 1476 1466 1462 1461 1459 1459 1464 1468
1434 1444 1448 1455 1457 1461 1467 1474 1497 1470 1475 1469 1470 1470 1471 1466 1463 1462 1459 1463 1460 1462 1471 1470 1481 1469 1467 1468 1470 1474 1469 1477 1484 1494 1493 1485 1483 1471 1459 1456 1455 1456 1457 1460 1464
1432 1442 1449 1453 1457 1462 1467 1486 1474 1467 1464 1469 1471 1473 1470 1466 1465 1463 1464 1467 1466 1465 1468 1479 1476 1472 1470 1469 1472 1472 1474 1479 1488 1496 1498 1493 1481 1465 1461 1459 1457 1457 1459 1462 1465
1425 1442 1449 1454 1458 1463 1468 1466 1465 1458 1460 1464 1470 1471 1469 1468 1467 1464 1469 1468 1467 1465 1465 1470 1481 1478 1473 1473 1474 1474 1475 1483 1490 1490 1488 1495 1489 1482 1466 1463 1462 1465 1467 1468 1469
1424 1442 1449 1453 1459 1463 1470 1466 1459 1457 1458 1462 1466 1471 1470 1466 1466 1468 1473 1469 1467 1466 1464 1468 1477 1484 1477 1479 1478 1474 1475 1480 1486 1497 1495 1498 1490 1476 1473 1469 1469 1471 1471 1470 1470
1427 1439 1448 1453 1459 1460 1462 1457 1454 1456 1458 1459 1460 1463 1466 1466 1467 1470 1472 1472 1467 1466 1468 1469 1478 1495 1482 1479 1479 1479 1481 1488 1503 1499 1517 1509 1494 1476 1473 1473 1473 1474 1473 1472 1471
1426 1440 1449 1452 1459 1458 1455 1453 1453 1457 1459 1460 1460 1461 1461 1464 1471 1472 1472 1470 1469 1468 1470 1470 1486 1506 1495 1489 1482 1481 1482 1487 1491 1498 1507 1509 1493 1476 1474 1475 1476 1476 1474 1473 1474
1422 1441 1451 1452 1452 1452 1451 1454 1456 1456 1458 1458 1458 1458 1460 1464 1467 1472 1474 1472 1470 1470 1470 1471 1483 1485 1498 1486 1486 1485 1483 1483 1490 1512 1498 1501 1484 1476 1474 1476 1476 1474 1473 1473 1473
1419 1431 1435 1444 1449 1450 1450 1452 1454 1456 1456 1457 1458 1458 1460 1466 1469 1473 1473 1473 1471 1471 1471 1474 1486 1491 1482 1482 1485 1484 1483 1486 1498 1487 1495 1483 1485 1478 1476 1474 1473 1472 1471 1470 1470
1418 1425 1433 1438 1443 1450 1451 1452 1453 1455 1456 1458 1459 1461 1462 1466 1467 1472 1473 1475 1473 1473 1474 1477 1493 1491 1490 1485 1483 1483 1483 1484 1486 1485 1485 1484 1483 1472 1469 1471 1472 1471 1470 1468 1468
1419 1422 1426 1440 1444 1449 1449 1451 1452 1454 1457 1456 1459 1463 1466 1468 1467 1469 1470 1471 1472 1475 1478 1480 1487 1494 1499 1492 1487 1493 1478 1481 1480 1481 1479 1483 1477 1473 1472 1470 1467 1465 1464 1463 1463